Home   Weather   West Palm Beach   Past weeks

Flag for USA Past Weather in West Palm Beach, Florida, USA — Yesterday and Last 2 Weeks

79 °F

Passing clouds.

Feels Like: 79 °F
Forecast: 68 / 77 °F
Wind: 10 mph from Northeast

Location: Palm Beach International Airport

Current Time: Oct 22, 2016 at 5:31:36 PM

Latest Report: Oct 22, 2016 at 4:53 PM

Visibility: 10 mi

Pressure: 29.94 "Hg

Humidity: 42%

Dew Point: 54 °F

Location of West Palm BeachLocation

Past Weather in West Palm Beach — Graph


West Palm Beach Temperature Yesterday

Maximum temperature yesterday: 86 °F (at 2:53 PM)
Minimum temperature yesterday: 71 °F (at 7:53 AM)
Average temperature yesterday: 78 °F

High & Low Weather Summary for the Past Weeks

High91 °F (Oct 8, 3:53 PM)90% (Oct 20, 8:53 AM)30.11 "Hg (Oct 20, 8:53 AM)
Low66 °F (Oct 22, 6:53 AM)39% (Oct 22, 2:53 PM)29.67 "Hg (Oct 7, 4:53 PM)
Average80 °F66%29.96 "Hg
* Reported Oct 7 3:53 PM — Oct 22 3:53 PM, West Palm Beach, Weather by CustomWeather, © 2016

Note: Actual official high and low records may vary slightly from our data, if they occured in-between our weather recording intervals... More about our weather records


West Palm Beach Weather History for the Previous 24 Hours

Scroll right to see more
Time TempWeatherWind HumidityBarometerVisibility
3:53 PM
Sat, Oct 22
80 °FPassing clouds.12 mph39%29.93 "Hg10 mi
2:53 PM79 °FSunny.9 mph39%29.94 "Hg10 mi
1:53 PM79 °FPassing clouds.8 mph42%29.95 "Hg10 mi
12:53 PM78 °FSunny.10 mph46%29.98 "Hg10 mi
11:53 AM77 °FSunny.10 mph54%29.98 "Hg10 mi
10:53 AM75 °FSunny.14 mph60%29.98 "Hg10 mi
9:53 AM71 °FSunny.12 mph63%29.96 "Hg10 mi
8:53 AM69 °FPassing clouds.10 mph66%29.94 "Hg10 mi
7:53 AM66 °FPassing clouds.9 mph68%29.92 "Hg10 mi
6:53 AM66 °FPassing clouds.8 mph73%29.90 "Hg10 mi
5:53 AM68 °FClear.10 mph82%29.88 "Hg10 mi
4:53 AM70 °FClear.13 mph84%29.87 "Hg10 mi
3:53 AM70 °FClear.8 mph87%29.85 "Hg10 mi
2:53 AM71 °FClear.9 mph84%29.85 "Hg10 mi
1:53 AM72 °FPassing clouds.8 mph78%29.85 "Hg10 mi
12:53 AM73 °FPassing clouds.7 mph74%29.84 "Hg10 mi
11:53 PM
Fri, Oct 21
73 °FPassing clouds.6 mph71%29.85 "Hg10 mi
10:53 PM75 °FPassing clouds.No wind69%29.84 "Hg10 mi
9:53 PM77 °FPassing clouds.No wind62%29.85 "Hg10 mi
8:53 PM77 °FPassing clouds.3 mph60%29.83 "Hg10 mi
7:53 PM80 °FPassing clouds.3 mph54%29.81 "Hg10 mi
6:53 PM81 °FPassing clouds.6 mph49%29.80 "Hg10 mi
5:53 PM84 °FScattered clouds.14 mph46%29.78 "Hg10 mi
Weather by CustomWeather, © 2016

See weather overviewHow to use our weather pages